Location: DARK SKY Beskydy - Park tmavé oblohy, www.darkskybeskydy.cz
(49.4926°N, 18.5016°E)
Time: 00:38:59
(UTC+01:00)

Envisat - Visible Passes

Search period start: 01 December 2022 00:00
Search period end: 11 December 2022 00:00
Orbit: 763 x 765 km, 98.2° (Epoch: 30 November)

Date Brightness Start Highest point End Pass type
(mag) Time Alt. Az. Time Alt. Az. Time Alt. Az.
01 Dec 5.3 03:16:26 10° NNE 03:18:16 19° NE 03:18:16 19° NE visible
01 Dec 3.8 04:55:15 10° N 04:58:27 33° NNW 04:58:27 33° NNW visible
02 Dec 6.0 02:40:37 10° NE 02:40:39 10° NE 02:40:39 10° NE visible
02 Dec 4.1 04:18:03 10° NNE 04:20:50 33° N 04:20:50 33° N visible
02 Dec 4.6 05:58:33 10° NNW 06:01:00 15° NW 06:01:00 15° NW visible
03 Dec 4.9 03:41:10 10° NNE 03:43:13 23° NE 03:43:13 23° NE visible
03 Dec 4.2 05:20:37 10° N 05:23:24 24° NW 05:23:24 24° NW visible
03 Dec 6.0 16:42:20 10° WSW 16:44:38 13° W 16:46:55 10° WNW visible
04 Dec 5.7 03:04:43 10° NE 03:05:38 14° NE 03:05:38 14° NE visible
04 Dec 4.2 04:43:12 10° N 04:45:48 29° N 04:45:48 29° N visible
05 Dec 4.6 04:06:06 10° NNE 04:08:12 25° NNE 04:08:12 25° NNE visible
05 Dec 4.5 05:46:12 10° NNW 05:48:23 17° NW 05:48:23 17° NW visible
06 Dec 5.3 03:29:19 10° NNE 03:30:38 17° NE 03:30:38 17° NE visible
06 Dec 4.3 05:08:29 10° N 05:10:48 23° NNW 05:10:48 23° NNW visible
06 Dec 5.8 16:29:22 10° SW 16:32:30 16° W 16:35:39 10° NW visible
07 Dec 4.5 04:31:11 10° N 04:33:14 24° N 04:33:14 24° N visible
07 Dec 4.8 06:12:19 10° NNW 06:13:24 12° NW 06:13:24 12° NW visible
08 Dec 5.0 03:54:10 10° NNE 03:55:39 19° NNE 03:55:39 19° NNE visible
08 Dec 4.6 05:33:58 10° N 05:35:50 18° NNW 05:35:50 18° NNW visible
09 Dec 5.7 03:17:31 10° NNE 03:18:06 13° NE 03:18:06 13° NE visible
09 Dec 4.5 04:56:24 10° N 04:58:16 21° N 04:58:16 21° N visible
09 Dec 5.7 16:16:40 10° SW 16:20:23 20° W 16:24:09 10° NW visible
10 Dec 4.9 04:19:11 10° NNE 04:20:43 20° NNE 04:20:43 20° NNE visible
10 Dec 4.8 05:59:45 10° NNW 06:00:54 13° NNW 06:00:54 13° NNW visible
